Tracking 19792 objects as of 16-Jul-2019
HD Live streaming from Space Station
objects crossing your sky now

CBERS 1 DEB

Track CBERS 1 DEB now!
10-day predictions


NORAD ID: 32470
Int'l Code: 1999-057RE
Perigee: 681.6 km
Apogee: 685.9 km
Inclination: 98.4 °
Period: 98.3 minutes
Semi major axis: 7054 km
RCS: 0.0093 m2 (small)
Launch date: October 14, 1999
Source: China/Brazil (CHBZ)
Launch site: Taiyaun Space Center, China (TSC)

Note: This is SATELLITE DEBRIS
aabbcc
Your satellite tracking list
Your tracking list is empty




NASA's NSSDC Master Catalog

Two Line Element Set (TLE):
1 32470U 99057RE  19195.22719740 +.00001236 +00000-0 +23927-3 0  9991
2 32470 098.3763 192.2313 0003045 298.2969 061.7926 14.65159289633757
Source of the keplerian elements: AFSPC